Flag for Germany Weather past 2 weeks in Oberhausen, North Rhine-Westphalia, Germany

Now
41 °F

Scattered clouds.


Feels Like: 32 °F
Forecast: 39 / 47 °F
Wind: 18 mph from West

Location: Duesseldorf

Current Time: Apr 1, 2015 at 10:18:09 AM

Latest Report: Apr 1, 2015 at 9:50 AM


Visibility: N/A

Pressure: 30.01 "Hg

Humidity: 76%

Dew point: 34 °F

Location of OberhausenLocation

Historic Weather in Oberhausen — Graph

°F

Oberhausen temperature yesterday

Maximum temperature yesterday: 52 °F (at 4:20 AM)
Minimum temperature yesterday: 37 °F (at 10:20 PM)
Average temperature yesterday: 48 °F

Past Weeks' High & Low Weather Summary

 TemperatureHumidityPressure
High64 °F (Mar 17, 1:50 PM)100% (Mar 20, 2:50 AM)30.39 "Hg (Mar 20, 2:50 AM)
Low30 °F (Mar 20, 2:50 AM)32% (Mar 17, 4:20 PM)29.27 "Hg (Mar 29, 7:50 PM)
Average45 °F77%29.95 "Hg
* Reported Mar 17 8:20 AM — Apr 1 9:20 AM, Oberhausen, Weather by CustomWeather, © 2015

Note: Actual official high and low records may vary slightly from our data, if they occured in-between our weather recording intervals... More about our weather records

Advertising

Oberhausen weather history for previous 24 hours

 ConditionsComfort  
Time TempWeatherWind HumidityBarometerVisibility
9:20 AM
Wed, Apr 1
39 °FScattered showers. Scattered clouds.17 mph81%30.01 "HgN/A
8:50 AM39 °FScattered showers. Partly sunny.15 mph81%30.01 "HgN/A
8:20 AM39 °FSprinkles. Broken clouds.14 mph81%29.98 "HgN/A
7:50 AM39 °FSprinkles. Passing clouds.10 mph81%29.98 "HgN/A
7:20 AM39 °FSprinkles. Passing clouds.15 mph75%29.95 "HgN/A
6:50 AM39 °FSprinkles. Partly cloudy.14 mph75%29.95 "HgN/A
6:20 AM41 °FSprinkles. Partly cloudy.22 mph70%29.92 "HgN/A
5:50 AM41 °FPassing clouds.20 mph66%29.89 "HgN/A
5:20 AM41 °FPassing clouds.20 mph66%29.89 "HgN/A
4:50 AM41 °FPassing clouds.18 mph66%29.89 "HgN/A
4:20 AM43 °FPartly cloudy.21 mph61%29.89 "HgN/A
3:50 AM43 °FPartly cloudy.24 mph61%29.86 "HgN/A
3:20 AM43 °FPassing clouds.15 mph66%29.86 "HgN/A
2:50 AM43 °FPassing clouds.17 mph61%29.86 "HgN/A
2:20 AM41 °FPassing clouds.20 mph70%29.86 "HgN/A
1:50 AM41 °FSprinkles. Passing clouds.22 mph76%29.86 "HgN/A
1:20 AM41 °FPassing clouds.16 mph76%29.83 "HgN/A
12:50 AM41 °FPassing clouds.17 mph76%29.83 "HgN/A
12:20 AM41 °FPassing clouds.15 mph76%29.83 "HgN/A
11:50 PM
Tue, Mar 31
41 °FClear.16 mph70%29.83 "Hg10 mi
11:20 PM39 °FPassing clouds.16 mph81%29.83 "HgN/A
10:50 PM37 °FPartly cloudy.13 mph87%29.80 "HgN/A
10:20 PM37 °FThundershowers. Passing clouds.15 mph87%29.80 "HgN/A
9:50 PM41 °FPassing clouds.9 mph81%29.80 "HgN/A
9:20 PM39 °FPassing clouds.13 mph87%29.80 "HgN/A
8:50 PM43 °FSnow flurries. Broken clouds.16 mph76%29.80 "HgN/A
8:20 PM45 °FStrong thunderstorms. Partly sunny.21 mph76%29.77 "HgN/A
7:50 PM50 °FSprinkles. Partly sunny.14 mph54%29.74 "HgN/A
7:20 PM50 °FSprinkles. Partly sunny.18 mph54%29.74 "HgN/A
6:50 PM50 °FSprinkles. Partly sunny.25 mph58%29.71 "HgN/A
6:20 PM50 °FSprinkles. Partly sunny.20 mph50%29.71 "HgN/A
5:50 PM48 °FSprinkles. Partly sunny.24 mph58%29.71 "HgN/A
5:20 PM52 °FScattered showers. Scattered clouds.23 mph44%29.71 "HgN/A
4:50 PM52 °FScattered clouds.28 mph41%29.68 "HgN/A
4:20 PM52 °FScattered clouds.28 mph44%29.68 "HgN/A
3:50 PM50 °FSprinkles. Partly sunny.26 mph47%29.65 "HgN/A
3:20 PM52 °FScattered showers. Scattered clouds.31 mph50%29.62 "HgN/A
2:50 PM52 °FSprinkles. Partly sunny.28 mph50%29.59 "HgN/A
2:20 PM52 °FScattered clouds.33 mph50%29.56 "HgN/A
1:50 PM52 °FSprinkles. Partly sunny.23 mph54%29.56 "HgN/A
1:20 PM48 °FSprinkles. Partly sunny.30 mph71%29.53 "HgN/A
12:50 PM52 °FPartly sunny.30 mph54%29.50 "HgN/A
12:20 PM52 °FSprinkles. Partly sunny.31 mph58%29.47 "HgN/A
11:50 AM52 °FSprinkles. Partly sunny.30 mph58%29.45 "HgN/A
11:20 AM52 °FPartly sunny.32 mph58%29.45 "HgN/A
10:50 AM52 °FBroken clouds.29 mph62%29.42 "HgN/A
10:20 AM52 °FSprinkles. Broken clouds.30 mph62%29.39 "HgN/A
Weather by CustomWeather, © 2015

See weather overviewHow to use our weather pages